Terug naar catalogus

COSMOS 2512

ActiefMilitairSSO
NORAD 41099·PAYLOAD·🇷🇺 Russia

Gelanceerd Dec 5, 2015 vanaf Plesetsk Cosmodrome

Loading…

Volgende Passages (komende 24 uur)

TLE

VersSource: Space-Track

Epoch: Sep 14, 2026, 13:16 UTC

1 41099U 15071B   26257.55294691  .00001657  00000-0  24735-3 0  9993
2 41099  98.0619 279.8266 0007069  90.8398 269.3621 14.76130274576335

Volg COSMOS 2512 in realtime met AllMySat

Download on the App Store